Location: ??????
(56.0120°N, 39.1740°E)
Time: 07:26:01
(UTC+00:00)

IRS-1A Rocket - Pass Details

Date: 14 April 2026
Orbit: 852 x 930 km, 98.9° (Epoch: 12 May)

Event Time Altitude Azimuth Distance (km) Brightness Sun altitude
Exits shadow 17:26:22 - 155° (SSE) 3,010 6.6 -8.2°
Reaches altitude 10° 17:27:39 10° 154° (SSE) 2,507 6.2 -8.4°
Maximum altitude 17:33:13 77° 70° (ENE) 906 4.3 -9.0°
Drops below altitude 10° 17:38:56 10° 345° (NNW) 2,573 7.5 -9.7°
Sets 17:41:22 0° 344° (NNW) 3,529 8.3 -10.0°
